Terminal Aerodrome Forecast
Issued by NWS Chicago, IL

Home | Current Version | Previous Version | Text Only | Print | Product List | Glossary Off
Versions: 1 2 3 4 5 6 7 8 9 10 11 12 13 14 15 16 17 18 19 20 21 22 23 24 25 26 27 28 29 30 31 32 33

000
FTUS43 KLOT 151900 AAA
TAFRFD
TAF AMD
KRFD 151957Z 1520/1618 13012G17KT 1 1/2SM -SHRA BR OVC004
     FM160100 13010KT 2SM -DZRA BR OVC004
     FM160400 15007KT 1SM -DZRA BR OVC003
     FM160800 21004KT 3/4SM -DZRA BR OVC003
     FM161400 29011KT 3SM -RA BR OVC007=

USA.gov is the U.S. government's official web portal to all federal, state and local government web resources and services.